Location: Sevilla
(37.3933°N, 5.9839°W)
Time: 11:44:45
(UTC+02:00)

S-56A Canister/Altair - Pass Details

Date: 26 June 2024
Orbit: 638 x 2488 km, 38.9° (Epoch: 14 July)

Event Time Altitude Azimuth Distance (km) Brightness Sun altitude
Rises 01:43:30 0° 281° (WNW) 4,592 11.8 -28.4°
Reaches altitude 10° 01:46:09 10° 282° (WNW) 3,827 11.3 -28.5°
Maximum altitude 01:56:48 89° 196° (SSW) 2,088 9.5 -28.8°
Drops below altitude 10° 02:11:30 10° 107° (ESE) 5,104 11.5 -29.2°
Sets 02:15:38 0° 107° (ESE) 6,155 12.0 -29.2°
